Skip Page Navigation
NASA JPL Caltech
NASA Logo - Jet Propulsion Laboratory + View the NASA Portal
+ Center for Near-Earth Object Studies
JPL Home Earth Solar System Stars & Galaxies Technology
JPL Solar System Dynamics
BODIES ORBITS EPHEMERIDES TOOLS PHYSICAL DATA DISCOVERY FAQ SITE MAP
JPL Small-Body Database Browser
Search: [ help ]  
3358 Anikushin (1978 RX)
Classification: Main-belt Asteroid          SPK-ID: 2003358
Ephemeris | Orbit Diagram | Orbital Elements | Mission Design | Physical Parameters | Discovery Circumstances | Close-Approach Data ]

[ show orbit diagram ]
Orbital Elements at Epoch 2459000.5 (2020-May-31.0) TDB
Reference: JPL 33 (heliocentric ecliptic J2000)
 Element Value Uncertainty (1-sigma)   Units 
e .2060159694969631 3.2105e-08  
a 3.181398546470214 1.4008e-08 au
q 2.525979640562924 1.0125e-07 au
i 2.103424429121822 4.69e-06 deg
node 147.0238378561519 0.00010127 deg
peri 273.9065450295717 0.00010202 deg
M 71.50428903167426 1.1396e-05 deg
tp 2458588.824391238551
(2019-Apr-15.32439124)
6.4942e-05 TDB
period 2072.647965053846
5.67
1.3689e-05
3.748e-08
d
yr
n .1736908563681954 1.1471e-09 deg/d
Q 3.836817452377504 1.6893e-08 au
  Orbit Determination Parameters
   # obs. used (total)      2133  
   data-arc span      23605 days (64.63 yr)  
   first obs. used      1955-09-13  
   last obs. used      2020-04-29  
   planetary ephem.      DE431  
   SB-pert. ephem.      SB431-N16  
   condition code      0  
   norm. resid. RMS      .47321  
   source      ORB  
   producer      Otto Matic  
   solution date      2020-May-20 01:52:57  

Additional Information
 Earth MOID = 1.5399 au 
 Jupiter MOID = 1.51255 au 
 T_jup = 3.165 
[ show covariance matrix ]

Ephemeris | Orbit Diagram | Orbital Elements | Mission Design | Physical Parameters | Discovery Circumstances | Close-Approach Data ]

Physical Parameter Table
Parameter Symbol Value Units Sigma Reference Notes
absolute magnitude H 12.7   n/a MPO502185  
diameter diameter 14.231 km 0.222 urn:nasa:pds:neowise_diameters_albedos::2.0[mainbelt] (http://adsabs.harvard.edu/abs/2011ApJ...741...68M)  
geometric albedo albedo 0.105   0.022 urn:nasa:pds:neowise_diameters_albedos::2.0[mainbelt] (http://adsabs.harvard.edu/abs/2011ApJ...741...68M)  

3358 Anikushin (1978 RX)          Discovered 1978-Sep-01 by Chernykh, N. at Nauchnyj
Reference: DISCOVERY.DBLast Updated: 2003-08-29

[ show close-approach data ]
Alternate Designations
 1978 RX = 1955 RR = 1972 TZ10 = 1984 US1 
Ephemeris | Orbit Diagram | Orbital Elements | Mission Design | Physical Parameters | Discovery Circumstances | Close-Approach Data ]
ABOUT SSD CREDITS/AWARDS PRIVACY/COPYRIGHT GLOSSARY LINKS
FirstGov 2020-Sep-30 16:26 UT
(server date/time)  
NASA Home Page
Site Manager:   Ryan S. Park
Webmaster  Alan B. Chamberlin